Location: Eitze
(52.9840°N, 9.6894°E)
Time: 07:07:12
(UTC+00:00)

MetOp-A - Pass Details

Date: 19 May 2025
Orbit: 522 x 774 km, 98.3° (Epoch: 14 June)

Event Time Altitude Azimuth Distance (km) Brightness Sun altitude
Exits shadow 22:10:29 25° 171° (S) 1,517 4.9 -15.6°
Maximum altitude 22:13:33 80° 255° (WSW) 794 4.0 -15.7°
Drops below altitude 10° 22:18:46 10° 343° (NNW) 2,333 7.9 -15.9°
Sets 22:21:05 0° 345° (NNW) 3,254 9.1 -16.0°
